Location: Bailleul
(50.3375°N, 2.8513°E)
Time: 06:05:49
(UTC+00:00)

Cosmos 2016 Rocket - Pass Details

Date: 26 October 2021
Orbit: 947 x 1000 km, 83.0° (Epoch: 05 December)

Event Time Altitude Azimuth Distance (km) Brightness Sun altitude
Rises 18:17:44 0° 150° (SSE) 3,653 6.7 -16.9°
Enters shadow 18:18:06 - 149° (SSE) 3,528 6.6 -17.0°
Exits shadow 18:27:19 24° 58° (ENE) 1,878 5.0 -18.5°
Drops below altitude 10° 18:30:39 10° 29° (NNE) 2,692 6.1 -19.0°
Sets 18:33:30 0° 18° (NNE) 3,637 6.9 -19.5°
